sat.trackr.live / text

‹ back to catalog

STARLINK-30548

NORAD 58046 · 2023-156U

PAYLOAD ACTIVE UNKNOWN

§ Identity

Operator
Country
US
Launch date
2023-10-09
Launch site
AFWTR
Launch vehicle
Mass (kg)
RCS (m²)

Purposes: comms

External: N2YO · Heavens-Above · Gunter

§ Orbital elements

Epoch: 2026-09-20T11:53:27.258432Z

Period
93.85 min
Inclination
53.1617°
Eccentricity
0.0001490
Mean motion
15.34406732 rev/d
Perigee alt
461.7 km
Apogee alt
463.7 km
Semi-major
6,840.8 km
B*
-3.7082e-6
RAAN
339.4235°
Arg perigee
93.7505°
Mean anomaly
266.3668°
Rev number
16,486

§ Raw data

STARLINK-305481 58046U 23156U   26263.49545438 -.00000502  00000+0 -37082-5 0  99942 58046  53.1617 339.4235 0001490  93.7505 266.3668 15.34406732164867

JSON: /api/v1/satellites/58046 · /tle

For live sub-satellite position, see the globe view (requires WebGL).

§ Visibility from observer

Set your observer location to see the next 7 days of passes ≥ 10°. The values pass through the URL so the page stays shareable.

No JS? Fill the form by hand. The geolocation button needs JavaScript.